User: anonymous   Login
Location: Biltmore Gardens
(41.6070°N, 83.4666°W)
Time: 01:24:01
(UTC+00:00)
Language:

Tiros 1 despin weight - Orbit

View from above orbital plane
View from above orbital plane
View from above satellite
View from above satellite

Ground track
Ground track

The orbit data is extracted from the following two-line orbital elements,

1   115U 60002D   21110.75604440  .00000252  00000-0  56785-4 0  9994
2   115  48.1663 236.3740 0034470 164.4396 195.7584 14.83747794258607
Epoch (UTC): 20 April 2021 18:08:42
Eccentricity: 0.0034470
inclination: 48.1663°
perigee height: 593 km
apogee height: 641 km
right ascension of ascending node: 236.3740°
argument of perigee: 164.4396°
revolutions per day: 14.83747794
mean anomaly at epoch: 195.7584°
orbit number at epoch: 25860

The dashed part of the orbit path shows where the satellite is in the earth's shadow,  

DLR